IRIDIUM 141

Last updated on Tue Sep 22 2026 00:03:21 GMT+0000 (Coordinated Universal Time)

1 43077U 17083H 26264.06424905 .00000122 00000+0 36665-4 0 9994 2 43077 86.3908 281.9037 0002171 91.5027 268.6417 14.34217956457914
UTC large
Height (km)
Speed (km/s)
/
Latitude / Longitude
Inclination (degrees)
Orbital Period (minutes)
Azimuth
Elevation
Range (km)
Doppler Factor

Next 0 passes for location: London (51.5072 / 0.1276)

No passes found over London.
IRIDIUM 141